Location: Harwich
(41.6860°N, 70.0760°W)
Time: 16:27:28
(UTC-05:00)

Cosmos 2228 - Visible Passes

Search period start: 24 November 2014 00:00
Search period end: 04 December 2014 00:00
Orbit: 595 x 624 km, 82.5° (Epoch: 24 November)

Date Brightness Start Highest point End Pass type
(mag) Time Alt. Az. Time Alt. Az. Time Alt. Az.
25 Nov 6.1 06:12:18 10° ESE 06:14:24 14° E 06:16:31 10° NE visible
25 Nov 4.7 17:54:29 10° N 17:56:01 20° NNE 17:56:01 20° NNE visible
25 Nov 6.1 19:33:01 10° NW 19:33:06 10° NW 19:33:06 10° NW visible
26 Nov 2.9 18:08:39 10° N 18:13:04 69° E 18:17:27 10° SSE visible
26 Nov 6.3 19:49:33 10° WNW 19:50:04 10° W 19:50:35 10° W visible
27 Nov 4.9 16:47:53 10° NE 16:49:15 11° ENE 16:50:37 10° E visible
27 Nov 3.3 18:23:00 10° NNW 18:27:24 68° W 18:31:47 10° S visible
28 Nov 4.4 17:00:43 10° NNE 17:03:52 19° ENE 17:07:00 10° ESE visible
28 Nov 4.5 18:37:35 10° NNW 18:41:40 38° W 18:45:45 10° SSW visible
29 Nov 6.5 05:33:27 10° E 05:34:19 11° E 05:35:11 10° ENE visible
29 Nov 3.8 17:14:27 10° NNE 17:18:24 31° ENE 17:22:19 10° SE visible
29 Nov 5.4 18:52:26 10° NW 18:55:52 22° W 18:59:17 10° SW visible
30 Nov 5.9 05:45:26 10° SE 05:48:24 19° E 05:51:24 10° NE visible
30 Nov 3.1 17:28:29 10° N 17:32:50 53° E 17:37:09 10° SSE visible
30 Nov 6.2 19:07:54 10° NW 19:09:59 13° W 19:12:03 10° WSW visible
01 Dec 5.1 05:58:46 10° SSE 06:02:33 31° E 06:06:24 10° NNE visible
01 Dec 3.0 17:42:45 10° N 17:47:12 86° W 17:51:37 10° S visible
02 Dec 3.9 06:12:35 10° S 06:16:47 56° E 06:21:03 10° NNE visible
02 Dec 4.0 17:57:13 10° NNW 18:01:29 49° W 18:05:44 10° SSW visible
03 Dec 5.2 18:11:55 10° NNW 18:15:42 28° W 18:19:28 10° SSW visible
